• în România
  • Lista ţărilor
  • Pe 7 zile
  • Temperatura apei
  • Hartă satelitară
  • Meteo pe hartă
  • Widget-uri
  • user-avatar
    Intrare

    Meteo pe oră la Ho Chi Minh

    Astăzi, 23 Octombrie, Marţi

    Timp Temperatura Precipitaţii Vânt Presiune Umiditate
    00:00 +28°C° 0 mm 1 m/s 758 mmHg 86%
    01:00 +28°C° 0 mm 1 m/s 758 mmHg 86%
    02:00 +28°C° 0 mm 1 m/s 757 mmHg 87%
    03:00 +28°C° 0 mm 1 m/s 757 mmHg 88%
    04:00 +27°C° 0 mm 1 m/s 757 mmHg 89%
    05:00 +28°C° 0 mm 1 m/s 757 mmHg 87%
    06:00 +28°C° 0 mm 1 m/s 758 mmHg 86%
    07:00 +29°C° 0 mm 1 m/s 758 mmHg 83%
    08:00 +30°C° 0.1 mm 1 m/s 758 mmHg 77%
    09:00 +32°C° 0.1 mm 1 m/s 758 mmHg 70%
    10:00 +33°C° 0.1 mm 1 m/s 758 mmHg 64%
    11:00 +34°C° 0 mm 1 m/s 758 mmHg 61%
    12:00 +34°C° 0 mm 1 m/s 757 mmHg 58%
    13:00 +36°C° 0 mm 2 m/s 756 mmHg 54%
    14:00 +35°C° 0 mm 2 m/s 756 mmHg 58%
    15:00 +35°C° 0 mm 2 m/s 756 mmHg 62%
    16:00 +34°C° 0 mm 3 m/s 756 mmHg 65%
    17:00 +33°C° 0.2 mm 3 m/s 756 mmHg 70%
    18:00 +31°C° 0.2 mm 3 m/s 757 mmHg 76%
    19:00 +29°C° 0.2 mm 3 m/s 757 mmHg 81%
    20:00 +29°C° 0.6 mm 3 m/s 758 mmHg 83%
    21:00 +28°C° 0.6 mm 3 m/s 758 mmHg 85%
    22:00 +28°C° 0.6 mm 3 m/s 758 mmHg 87%
    23:00 +28°C° 0 mm 2 m/s 758 mmHg 87%

    Mâine, 24 Octombrie, Miercuri

    Timp Temperatura Precipitaţii Vânt Presiune Umiditate
    00:00 +28°C° 0 mm 2 m/s 758 mmHg 88%
    01:00 +27°C° 0 mm 2 m/s 758 mmHg 88%
    02:00 +27°C° 0.1 mm 2 m/s 758 mmHg 89%
    03:00 +27°C° 0.1 mm 2 m/s 758 mmHg 91%
    04:00 +27°C° 0.1 mm 2 m/s 757 mmHg 92%
    05:00 +27°C° 0.1 mm 2 m/s 758 mmHg 91%
    06:00 +27°C° 0.1 mm 3 m/s 758 mmHg 90%
    07:00 +28°C° 0.1 mm 3 m/s 758 mmHg 89%
    08:00 +29°C° 1.1 mm 3 m/s 759 mmHg 83%
    09:00 +31°C° 1.1 mm 3 m/s 759 mmHg 77%
    10:00 +33°C° 1.1 mm 3 m/s 759 mmHg 72%
    11:00 +32°C° 1.6 mm 2 m/s 758 mmHg 70%
    12:00 +34°C° 1.6 mm 2 m/s 758 mmHg 69%
    13:00 +34°C° 1.6 mm 2 m/s 757 mmHg 67%
    14:00 +34°C° 2.1 mm 2 m/s 757 mmHg 69%
    15:00 +32°C° 2.1 mm 2 m/s 757 mmHg 72%
    16:00 +32°C° 2.1 mm 2 m/s 756 mmHg 74%
    17:00 +31°C° 0.3 mm 2 m/s 757 mmHg 78%
    18:00 +29°C° 0.3 mm 3 m/s 757 mmHg 81%
    19:00 +28°C° 0.3 mm 3 m/s 758 mmHg 85%
    20:00 +28°C° 0.1 mm 3 m/s 758 mmHg 86%
    21:00 +28°C° 0.1 mm 3 m/s 759 mmHg 87%
    22:00 +27°C° 0.1 mm 3 m/s 759 mmHg 88%
    23:00 +27°C° 0.1 mm 3 m/s 759 mmHg 88%

    Poimâine, 25 Octombrie, Joi

    Timp Temperatura Precipitaţii Vânt Presiune Umiditate
    00:00 +27°C° 0.1 mm 3 m/s 759 mmHg 89%
    01:00 +27°C° 0.1 mm 2 m/s 758 mmHg 89%
    02:00 +27°C° 0 mm 2 m/s 758 mmHg 90%
    03:00 +26°C° 0 mm 2 m/s 758 mmHg 91%
    04:00 +26°C° 0 mm 2 m/s 758 mmHg 92%
    05:00 +27°C° 0.1 mm 2 m/s 758 mmHg 90%
    06:00 +27°C° 0.1 mm 2 m/s 759 mmHg 88%
    07:00 +27°C° 0.1 mm 2 m/s 759 mmHg 87%
    08:00 +29°C° 0 mm 3 m/s 759 mmHg 79%
    09:00 +31°C° 0 mm 3 m/s 760 mmHg 72%
    10:00 +34°C° 0 mm 3 m/s 760 mmHg 64%
    11:00 +34°C° 0 mm 3 m/s 759 mmHg 61%
    12:00 +35°C° 0 mm 3 m/s 758 mmHg 57%
    13:00 +36°C° 0 mm 3 m/s 757 mmHg 53%
    14:00 +35°C° 0 mm 3 m/s 757 mmHg 57%
    15:00 +35°C° 0 mm 3 m/s 756 mmHg 61%
    16:00 +34°C° 0 mm 3 m/s 756 mmHg 64%
    17:00 +33°C° 0 mm 3 m/s 757 mmHg 69%
    18:00 +30°C° 0 mm 3 m/s 757 mmHg 75%
    19:00 +29°C° 0 mm 3 m/s 758 mmHg 80%
    20:00 +29°C° 0 mm 3 m/s 758 mmHg 82%
    21:00 +28°C° 0 mm 3 m/s 759 mmHg 83%
    22:00 +28°C° 0 mm 3 m/s 760 mmHg 85%
    23:00 +28°C° 0 mm 3 m/s 759 mmHg 87%

    26 Octombrie, Vineri

    Timp Temperatura Precipitaţii Vânt Presiune Umiditate
    00:00 +27°C° 0 mm 2 m/s 759 mmHg 88%
    01:00 +27°C° 0 mm 2 m/s 759 mmHg 89%
    02:00 +27°C° 0 mm 2 m/s 759 mmHg 90%
    03:00 +27°C° 0 mm 2 m/s 758 mmHg 90%
    04:00 +27°C° 0 mm 2 m/s 758 mmHg 91%
    05:00 +27°C° 0 mm 2 m/s 759 mmHg 89%
    06:00 +28°C° 0 mm 2 m/s 759 mmHg 88%
    07:00 +28°C° 0 mm 2 m/s 760 mmHg 86%
    08:00 +30°C° 0 mm 2 m/s 760 mmHg 79%
    09:00 +31°C° 0 mm 2 m/s 760 mmHg 72%
    10:00 +34°C° 0 mm 2 m/s 760 mmHg 65%
    11:00 +34°C° 0.1 mm 2 m/s 759 mmHg 63%
    12:00 +35°C° 0.1 mm 2 m/s 759 mmHg 60%
    13:00 +36°C° 0.1 mm 2 m/s 758 mmHg 57%
    14:00 +35°C° 0.6 mm 2 m/s 757 mmHg 60%
    15:00 +35°C° 0.6 mm 2 m/s 757 mmHg 62%
    16:00 +34°C° 0.6 mm 2 m/s 756 mmHg 65%
    17:00 +32°C° 0.3 mm 2 m/s 757 mmHg 71%
    18:00 +30°C° 0.3 mm 3 m/s 757 mmHg 77%
    19:00 +29°C° 0.3 mm 3 m/s 758 mmHg 84%
    20:00 +28°C° 0.1 mm 3 m/s 758 mmHg 85%
    21:00 +28°C° 0.1 mm 2 m/s 759 mmHg 86%
    22:00 +28°C° 0.1 mm 2 m/s 759 mmHg 88%
    23:00 +28°C° 0.3 mm 2 m/s 759 mmHg 89%

    27 Octombrie, Sâmbătă

    Timp Temperatura Precipitaţii Vânt Presiune Umiditate
    00:00 +27°C° 0.3 mm 2 m/s 759 mmHg 89%
    01:00 +27°C° 0.3 mm 2 m/s 758 mmHg 90%
    02:00 +27°C° 0.1 mm 2 m/s 758 mmHg 91%
    03:00 +27°C° 0.1 mm 2 m/s 758 mmHg 92%
    04:00 +27°C° 0.1 mm 1 m/s 758 mmHg 92%
    05:00 +27°C° 0 mm 2 m/s 759 mmHg 91%
    06:00 +27°C° 0 mm 2 m/s 759 mmHg 90%
    07:00 +28°C° 0 mm 2 m/s 760 mmHg 89%
    08:00 +29°C° 0 mm 2 m/s 760 mmHg 81%
    09:00 +31°C° 0 mm 2 m/s 760 mmHg 73%
    10:00 +34°C° 0 mm 2 m/s 760 mmHg 66%
    11:00 +34°C° 0 mm 2 m/s 759 mmHg 63%
    12:00 +35°C° 0 mm 2 m/s 758 mmHg 60%
    13:00 +35°C° 0 mm 1 m/s 757 mmHg 58%
    14:00 +35°C° 1 mm 2 m/s 757 mmHg 61%
    15:00 +34°C° 1 mm 2 m/s 756 mmHg 65%
    16:00 +34°C° 1 mm 3 m/s 756 mmHg 69%
    17:00 +31°C° 0.4 mm 3 m/s 757 mmHg 75%
    18:00 +30°C° 0.4 mm 3 m/s 757 mmHg 80%
    19:00 +28°C° 0.4 mm 3 m/s 758 mmHg 85%
    20:00 +28°C° 0.2 mm 3 m/s 758 mmHg 86%
    21:00 +28°C° 0.2 mm 3 m/s 758 mmHg 87%
    22:00 +28°C° 0.2 mm 3 m/s 759 mmHg 87%
    23:00 +27°C° 0.4 mm 2 m/s 758 mmHg 88%

    28 Octombrie, Duminică

    Timp Temperatura Precipitaţii Vânt Presiune Umiditate
    00:00 +27°C° 0.4 mm 2 m/s 758 mmHg 89%
    01:00 +27°C° 0.4 mm 2 m/s 758 mmHg 90%
    02:00 +27°C° 0.1 mm 2 m/s 758 mmHg 91%
    03:00 +27°C° 0.1 mm 2 m/s 758 mmHg 91%
    04:00 +26°C° 0.1 mm 2 m/s 757 mmHg 92%
    05:00 +27°C° 0 mm 2 m/s 758 mmHg 91%
    06:00 +27°C° 0 mm 2 m/s 758 mmHg 89%
    07:00 +27°C° 0 mm 2 m/s 759 mmHg 88%
    08:00 +29°C° 0.2 mm 2 m/s 759 mmHg 82%
    09:00 +31°C° 0.2 mm 2 m/s 759 mmHg 75%
    10:00 +33°C° 0.2 mm 3 m/s 759 mmHg 69%
    11:00 +34°C° 0 mm 2 m/s 758 mmHg 65%
    12:00 +35°C° 0 mm 2 m/s 757 mmHg 61%
    13:00 +36°C° 0 mm 2 m/s 756 mmHg 57%
    14:00 +35°C° 0.3 mm 2 m/s 756 mmHg 59%
    15:00 +35°C° 0.3 mm 2 m/s 756 mmHg 61%
    16:00 +34°C° 0.3 mm 1 m/s 756 mmHg 63%
    17:00 +32°C° 1.2 mm 2 m/s 756 mmHg 70%
    18:00 +30°C° 1.2 mm 2 m/s 757 mmHg 77%
    19:00 +29°C° 1.2 mm 3 m/s 757 mmHg 84%
    20:00 +28°C° 0.3 mm 2 m/s 757 mmHg 85%
    21:00 +28°C° 0.3 mm 2 m/s 758 mmHg 86%
    22:00 +28°C° 0.3 mm 2 m/s 758 mmHg 86%
    23:00 +28°C° 0.2 mm 2 m/s 757 mmHg 87%

    29 Octombrie, Luni

    Timp Temperatura Precipitaţii Vânt Presiune Umiditate
    00:00 +27°C° 0.2 mm 1 m/s 757 mmHg 88%
    01:00 +27°C° 0.2 mm 1 m/s 757 mmHg 89%
    02:00 +27°C° 0.1 mm 1 m/s 757 mmHg 90%
    03:00 +27°C° 0.1 mm 1 m/s 757 mmHg 90%
    04:00 +27°C° 0.1 mm 2 m/s 757 mmHg 90%
    05:00 +27°C° 0 mm 2 m/s 757 mmHg 89%
    06:00 +27°C° 0 mm 2 m/s 758 mmHg 88%
    07:00 +28°C° 0 mm 2 m/s 758 mmHg 87%
    08:00 +29°C° 0.3 mm 2 m/s 758 mmHg 80%
    09:00 +31°C° 0.3 mm 1 m/s 758 mmHg 74%
    10:00 +32°C° 0.3 mm 1 m/s 758 mmHg 68%
    11:00 +33°C° 0.4 mm 1 m/s 757 mmHg 66%
    12:00 +33°C° 0.4 mm 1 m/s 757 mmHg 63%
    13:00 +34°C° 0.4 mm 1 m/s 756 mmHg 61%
    14:00 +33°C° 1.1 mm 1 m/s 755 mmHg 64%
    15:00 +34°C° 1.1 mm 2 m/s 755 mmHg 66%
    16:00 +34°C° 1.1 mm 2 m/s 755 mmHg 69%
    17:00 +31°C° 1.5 mm 2 m/s 755 mmHg 74%
    18:00 +30°C° 1.5 mm 2 m/s 756 mmHg 80%
    19:00 +29°C° 1.5 mm 3 m/s 756 mmHg 85%
    20:00 +28°C° 0.1 mm 2 m/s 757 mmHg 86%
    21:00 +28°C° 0.1 mm 2 m/s 757 mmHg 86%
    22:00 +28°C° 0.1 mm 2 m/s 757 mmHg 86%
    23:00 +28°C° 0 mm 2 m/s 757 mmHg 87%
    Arată mai mult